This is the latest recevied weather packets stored in our database for station/object IR3AS. If no packets are shown the sender has not sent any weather packets the latest 10 day(s).
| Time | Temp. | Humidity | Pressure | Rain* | Wind** | Luminosity | Snow |
|---|---|---|---|---|---|---|---|
| 1787414712 | 17.78° C | 59% | 863.9 hPa | 0 mm | - | - | - |
| 1787414412 | 17.78° C | 59% | 866.4 hPa | 0 mm | - | - | - |
| 1787414112 | 17.22° C | 63% | 865.8 hPa | 0 mm | - | - | - |
| 1787413812 | 15.56° C | 63% | 866.2 hPa | 0 mm | - | - | - |
| 1787413512 | 15.56° C | 60% | 866.3 hPa | 0 mm | - | - | - |
| 1787413212 | 16.11° C | 61% | 866.5 hPa | 0 mm | - | - | - |
| 1787412949 | 15.56° C | 62% | 865.8 hPa | 0 mm | - | - | - |
| 1787412912 | 15.56° C | 62% | 865.8 hPa | 0 mm | - | - | - |
| 1787412612 | 15.56° C | 62% | 865.6 hPa | 0 mm | - | - | - |
| 1787412312 | 15.56° C | 60% | 863.1 hPa | 0 mm | - | - | - |
| 1787412012 | 16.11° C | 59% | 863.5 hPa | 0 mm | - | - | - |
| 1787411713 | 16.11° C | 59% | 865.6 hPa | 0 mm | - | - | - |
| 1787411413 | 16.11° C | 59% | 863.4 hPa | 0 mm | - | - | - |
| 1787411113 | 16.67° C | 57% | 863.5 hPa | 0 mm | - | - | - |
| 1787410813 | 17.22° C | 56% | 863.2 hPa | 0 mm | - | - | - |
| 1787410513 | 17.78° C | 55% | 861.5 hPa | 0 mm | - | - | - |
| 1787410213 | 18.89° C | 54% | 864.2 hPa | 0 mm | - | - | - |
| 1787409913 | 20° C | 53% | 863.9 hPa | 0 mm | - | - | - |
| 1787409613 | 20.56° C | 52% | 864 hPa | 0 mm | - | - | - |
| 1787409313 | 20.56° C | 53% | 863.6 hPa | 0 mm | - | - | - |
| 1787409013 | 20.56° C | 54% | 863.6 hPa | 0 mm | - | - | - |
| 1787408777 | 20.56° C | 55% | 863.1 hPa | 0 mm | - | - | - |
| 1787408713 | 20.56° C | 55% | 863.1 hPa | 0 mm | - | - | - |
| 1787408413 | 20° C | 55% | 863.4 hPa | 0 mm | - | - | - |
| 1787408113 | 20.56° C | 52% | 863.6 hPa | 0 mm | - | - | - |
* Rain latest hour (hover to see other rain measurements)
** Current wind speed in m/s (hover to see current wind gust speed)